FENGYUN 1C DEB

Satellite information

Favourite Embed

Satellite Type and Status

DEBRISIN ORBIT

Key statistics

Satellite FENGYUN 1C DEB at a glance.

Uptime

9609

Days in orbit

Revolutions

≈ 14.4

Per day

Orbit

SSO

Sun Synchronous Orbit

Inclination

99.0

Latest

Satellite identification and parameters

Extended collection of information and parameters for FENGYUN 1C DEB.

Object identification

Identified? True

Debris? True

Object name: FENGYUN 1C DEB

International designator: 1999-025RS

Object number (NORAD): 30113

Object ID (CCSDS): 30113

Country: PEOPLES REPUBLIC OF CHINA (PRC)

Current information (Y/N): Y

RCS size: SMALL

Orbital parameters

Period: 99.759 minutes

Inclination: 99.0487 deg

SMA: 7125.176 km

Apoapsis: 776.178 km

Periapsis: 717.904 km

RAAN: 87.0844 deg

Eccentricy: 0.00408927

Argument of periapsis: 316.7212 deg

Mean anomaly: 118.1748 deg

Mean motion: 14.43475338 rev/day

Mean motion (dot): 0.00006656 rev/day2

B* drag term: 0.0019617125 1/REarth

Two-line elements (TLE)

Creation date: Aug. 30, 2025, 3:38 a.m.

Reference frame: TEME

Reference center: EARTH

Epoch: Aug. 29, 2025, 12:43 p.m. UTC

TLE line 0: 0 FENGYUN 1C DEB

TLE line 1: 1 30113U 99025RS 25241.52994534 .00006656 00000-0 19617-2 0 9997

TLE line 2: 2 30113 99.0487 87.0844 0040893 316.7212 118.1748 14.43475338963903

Live tracking on map

Real-time ground track for satellite FENGYUN 1C DEB.

In-orbit conjunctions

A list of the most updated potential collisions computed for object FENGYUN 1C DEB.

Target Orbit TCA Probability of collision Miss distance Type
SL-8 R/B LEO 2025-07-03 00:37:38 0.0001152377 247.0 (m) ROCKET BODY
CZ-6A DEB LEO 2025-01-15 00:54:16 0.000175905 119.0 (m) DEBRIS
CZ-6A DEB LEO 2025-01-02 17:33:00 0.0006385841 46.0 (m) DEBRIS
CZ-6A DEB LEO 2024-12-01 02:15:14 0.000261843 228.0 (m) DEBRIS
CZ-6A DEB LEO 2024-11-17 10:33:21 0.0001484473 428.0 (m) DEBRIS

Associated space launch

Chinese polar orbiting meteorological satellite

FENGYUN 1C DEB was lifted into orbit during the mission ‘Long March 4B | Feng Yun 1C’, on board a Long March 4B space rocket.

The launch took place on May 10, 1999, 1:33 a.m. from Launch Complex 7.

For more information about the launch, click the button.

Launch to space Long March 4B | Feng Yun 1C
Long March 4B | Feng Yun 1C

Agency: N/A

Status: Launch Successful

Launch date: May 10, 1999, 1:33 a.m. UTC

Rocket: Long March 4B

Launch pad: Launch Complex 7

Location: Taiyuan Satellite Launch Center, People's Republic of China

...

Latest news about this satellite

There are no fresh news available about this satellite. Check back as we update our databases every day.


Newsletter sign-up

Weekly statistics, charts and insights to help you stay on top of the space industry.